This demonstration page uses our WeatherBlox Daily Observations layout. Learn more.

Left ArrowRight Arrow

Hourly Observations for July 4, 2019

Temp ( °F °C ) Dew Point ( °F °C ) Humidity (%) Winds ( mph kmh ) Pressure ( in mb ) Visibility ( mi km ) Precip ( " mm )
12:53 am 00:53 Clear 50 10 49 9.4 96 96 E 6 9 29.98 1015 9 14 0.00 0.00
1:53 am 01:53 Clear 48 8.9 47 8.3 96 96 Calm 29.98 1015 10 16 0.00 0.00
2:53 am 02:53 Clear 48 8.9 47 8.3 96 96 Calm 29.98 1015 10 16 0.00 0.00
3:53 am 03:53 Clear 47 8.3 46 7.8 97 97 Calm 29.98 1015 10 16 0.00 0.00
4:53 am 04:53 Clear 46 7.8 46 7.8 100 100 Calm 29.99 1016 9 14 0.00 0.00
5:53 am 05:53 Sunny 47 8.3 46 7.8 97 97 NNE 3 6 29.99 1016 10 16 0.00 0.00
6:53 am 06:53 Sunny 49 9.4 49 9.4 100 100 E 5 7 30.00 1016 7 11 0.00 0.00
7:29 am 07:29 Partly Cloudy 50 10 49 9.4 96 96 ENE 6 9 30.00 1016 10 16 0.00 0.00
7:49 am 07:49 Mostly Cloudy with Mist and Fog 52 11 50 10 94 94 NE 6 9 30.00 1016 4 6 0.00 0.00
7:53 am 07:53 Mostly Cloudy with Mist and Fog 51 10.6 50 10 96 96 NE 6 9 30.00 1016 6 10 0.00 0.00
8:18 am 08:18 Mostly Sunny 54 12.2 52 11.1 93 93 NNE 3 6 29.99 1015 10 16 0.00 0.00
8:53 am 08:53 Sunny 57 13.9 53 11.7 87 87 ENE 5 7 30.00 1016 10 16 0.00 0.00
9:53 am 09:53 Sunny 64 17.8 52 11.1 65 65 E 5 7 29.98 1015 10 16 0.00 0.00
10:53 am 10:53 Sunny 66 18.9 47 8.3 50 50 Calm 29.97 1015 10 16 0.00 0.00
11:53 am 11:53 Sunny 70 21.1 46 7.8 42 42 VRB 5 7 29.97 1015 10 16 0.00 0.00
12:53 pm 12:53 Sunny 71 21.7 47 8.3 42 42 VRB 5 7 29.96 1015 10 16 0.00 0.00
1:53 pm 13:53 Sunny 75 23.9 48 8.9 39 39 VRB 6 9 29.95 1014 10 16 0.00 0.00
2:53 pm 14:53 Sunny 75 23.9 45 7.2 34 34 WSW 7 11 29.94 1014 10 16 0.00 0.00
3:53 pm 15:53 Sunny 77 25 43 6.1 30 30 W 6 9 29.93 1014 10 16 0.00 0.00
4:53 pm 16:53 Mostly Sunny 77 25 47 8.3 35 35 NNW 16 26 29.94 1014 10 16 0.00 0.00
5:53 pm 17:53 Partly Cloudy 74 23.3 47 8.3 38 38 NNW 7 11 29.95 1014 10 16 0.00 0.00
6:53 pm 18:53 Sunny 74 23.3 48 8.9 40 40 NNE 10 17 29.96 1014 10 16 0.00 0.00
7:53 pm 19:53 Sunny 72 22.2 51 10.6 48 48 ENE 12 19 29.97 1015 10 16 0.00 0.00
8:53 pm 20:53 Sunny 67 19.4 52 11.1 59 59 ENE 8 13 29.98 1015 10 16 0.00 0.00
9:53 pm 21:53 Clear 62 16.7 54 12.2 75 75 Calm 30.01 1016 10 16 0.00 0.00
10:53 pm 22:53 Clear 59 15 53 11.7 81 81 N 5 7 30.03 1017 10 16 0.00 0.00
11:53 pm 23:53 Mostly Clear 55 12.8 52 11.1 90 90 S 6 9 30.05 1018 10 16 0.00 0.00

Powered by AerisWeather